TimeCST,TemperatureF,Dew PointF,Humidity,Sea Level PressureIn,VisibilityMPH,Wind Direction,Wind SpeedMPH,Gust SpeedMPH,PrecipitationIn,Events,Conditions,WindDirDegrees,DateUTC
12:15 AM,10.0,6.8,87,30.13,10.0,WNW,3.5,-,N/A,,Clear,290,2012-12-29 06:15:00
12:35 AM,9.5,6.4,87,30.13,10.0,WNW,3.5,-,N/A,,Clear,290,2012-12-29 06:35:00
12:55 AM,9.3,5.9,86,30.13,10.0,West,3.5,-,N/A,,Clear,280,2012-12-29 06:55:00
1:15 AM,9.3,5.9,86,30.13,10.0,West,3.5,-,N/A,,Clear,270,2012-12-29 07:15:00
1:35 AM,8.4,5.0,86,30.14,10.0,West,3.5,-,N/A,,Clear,270,2012-12-29 07:35:00
1:55 AM,8.1,4.6,86,30.15,10.0,West,4.6,-,N/A,,Clear,280,2012-12-29 07:55:00
2:15 AM,7.7,4.3,86,30.15,10.0,Calm,Calm,-,N/A,,Clear,0,2012-12-29 08:15:00
2:35 AM,7.2,3.9,87,30.15,10.0,West,3.5,-,N/A,,Clear,280,2012-12-29 08:35:00
2:55 AM,6.3,3.2,87,30.16,10.0,Calm,Calm,-,N/A,,Clear,0,2012-12-29 08:55:00
3:15 AM,5.9,2.8,87,30.17,10.0,Calm,Calm,-,N/A,,Clear,0,2012-12-29 09:15:00
3:35 AM,5.5,2.3,86,30.17,10.0,WNW,3.5,-,N/A,,Clear,290,2012-12-29 09:35:00
3:55 AM,5.5,2.3,86,30.17,10.0,Calm,Calm,-,N/A,,Clear,0,2012-12-29 09:55:00
4:15 AM,5.4,2.1,86,30.18,10.0,Calm,Calm,-,N/A,,Clear,0,2012-12-29 10:15:00
4:35 AM,5.0,1.9,87,30.18,10.0,West,3.5,-,N/A,,Clear,280,2012-12-29 10:35:00
4:55 AM,4.6,1.4,86,30.17,10.0,West,3.5,-,N/A,,Clear,270,2012-12-29 10:55:00
5:15 AM,5.5,2.1,86,30.18,10.0,West,4.6,-,N/A,,Clear,260,2012-12-29 11:15:00
5:35 AM,5.9,2.3,85,30.18,10.0,West,3.5,-,N/A,,Clear,270,2012-12-29 11:35:00
6:15 AM,6.6,2.8,84,30.19,10.0,West,3.5,-,N/A,,Clear,270,2012-12-29 12:15:00
6:35 AM,6.6,2.7,84,30.19,10.0,West,5.8,-,N/A,,Clear,280,2012-12-29 12:35:00
6:55 AM,5.9,2.1,84,30.20,10.0,West,3.5,-,N/A,,Clear,270,2012-12-29 12:55:00
7:15 AM,6.8,3.0,84,30.20,10.0,West,3.5,-,N/A,,Clear,270,2012-12-29 13:15:00
7:35 AM,7.9,3.7,83,30.20,10.0,Calm,Calm,-,N/A,,Clear,0,2012-12-29 13:35:00
7:55 AM,8.1,4.1,84,30.21,10.0,West,6.9,-,N/A,,Clear,270,2012-12-29 13:55:00
8:15 AM,8.6,4.5,83,30.21,10.0,WNW,5.8,-,N/A,,Clear,290,2012-12-29 14:15:00
8:35 AM,9.7,5.7,84,30.22,10.0,West,4.6,-,N/A,,Clear,270,2012-12-29 14:35:00
8:55 AM,11.1,7.0,83,30.22,10.0,West,4.6,-,N/A,,Clear,280,2012-12-29 14:55:00
9:15 AM,13.5,8.8,82,30.23,10.0,West,6.9,-,N/A,,Clear,270,2012-12-29 15:15:00
9:35 AM,15.8,10.8,80,30.23,10.0,West,6.9,-,N/A,,Clear,280,2012-12-29 15:35:00
9:55 AM,18.3,13.1,80,30.24,10.0,WNW,8.1,-,N/A,,Clear,290,2012-12-29 15:55:00
10:15 AM,21.2,15.1,77,30.24,10.0,West,4.6,-,N/A,,Clear,280,2012-12-29 16:15:00
10:35 AM,23.2,16.3,75,30.24,10.0,West,4.6,-,N/A,,Clear,270,2012-12-29 16:35:00
10:55 AM,25.0,17.2,72,30.25,10.0,West,6.9,-,N/A,,Clear,280,2012-12-29 16:55:00
11:15 AM,27.0,17.8,68,30.24,10.0,WNW,6.9,-,N/A,,Clear,290,2012-12-29 17:15:00
11:35 AM,28.6,18.9,67,30.24,10.0,West,9.2,-,N/A,,Clear,270,2012-12-29 17:35:00
11:55 AM,29.8,19.2,65,30.24,10.0,West,8.1,-,N/A,,Clear,280,2012-12-29 17:55:00
12:15 PM,30.9,19.6,63,30.23,10.0,West,9.2,-,N/A,,Clear,270,2012-12-29 18:15:00
12:35 PM,31.8,19.8,61,30.22,10.0,West,8.1,-,N/A,,Clear,270,2012-12-29 18:35:00
12:55 PM,32.5,20.3,61,30.22,10.0,West,9.2,-,N/A,,Clear,280,2012-12-29 18:55:00
1:15 PM,33.8,20.3,58,30.21,10.0,West,6.9,-,N/A,,Clear,260,2012-12-29 19:15:00
1:35 PM,34.7,20.8,57,30.21,10.0,West,6.9,-,N/A,,Clear,260,2012-12-29 19:35:00
1:55 PM,35.8,21.6,56,30.21,10.0,West,11.5,-,N/A,,Clear,260,2012-12-29 19:55:00
2:15 PM,35.6,21.2,56,30.20,10.0,West,8.1,-,N/A,,Clear,260,2012-12-29 20:15:00
2:35 PM,35.8,21.2,55,30.21,10.0,West,10.4,-,N/A,,Clear,270,2012-12-29 20:35:00
2:55 PM,35.6,20.8,55,30.21,10.0,West,9.2,-,N/A,,Clear,260,2012-12-29 20:55:00
3:15 PM,36.1,20.5,53,30.21,10.0,West,10.4,-,N/A,,Clear,260,2012-12-29 21:15:00
3:35 PM,36.5,21.2,54,30.20,10.0,WSW,8.1,-,N/A,,Clear,250,2012-12-29 21:35:00
3:55 PM,36.1,21.0,54,30.21,10.0,West,8.1,-,N/A,,Clear,260,2012-12-29 21:55:00
4:15 PM,35.8,21.0,55,30.22,10.0,West,8.1,-,N/A,,Clear,260,2012-12-29 22:15:00
4:35 PM,34.9,21.7,59,30.22,10.0,West,5.8,-,N/A,,Clear,260,2012-12-29 22:35:00
5:15 PM,32.2,20.7,63,30.22,10.0,West,3.5,-,N/A,,Clear,270,2012-12-29 23:15:00
5:35 PM,29.5,20.3,69,30.22,10.0,Calm,Calm,-,N/A,,Clear,0,2012-12-29 23:35:00
5:55 PM,27.0,19.9,75,30.23,10.0,Calm,Calm,-,N/A,,Clear,0,2012-12-29 23:55:00
6:15 PM,25.2,19.4,79,30.23,10.0,Calm,Calm,-,N/A,,Clear,0,2012-12-30 00:15:00
6:35 PM,23.0,18.3,82,30.23,10.0,Calm,Calm,-,N/A,,Clear,0,2012-12-30 00:35:00
6:55 PM,21.9,17.8,84,30.23,10.0,Calm,Calm,-,N/A,,Clear,0,2012-12-30 00:55:00
7:15 PM,23.4,18.9,83,30.23,10.0,WSW,5.8,-,N/A,,Clear,240,2012-12-30 01:15:00
7:35 PM,25.3,18.7,76,30.24,10.0,West,4.6,-,N/A,,Clear,270,2012-12-30 01:35:00
7:55 PM,19.6,15.3,83,30.23,10.0,Calm,Calm,-,N/A,,Clear,0,2012-12-30 01:55:00
8:15 PM,20.1,16.3,85,30.23,10.0,Calm,Calm,-,N/A,,Clear,0,2012-12-30 02:15:00
8:35 PM,19.8,16.2,86,30.23,10.0,Calm,Calm,-,N/A,,Clear,0,2012-12-30 02:35:00
8:55 PM,18.9,15.6,87,30.23,10.0,Calm,Calm,-,N/A,,Clear,0,2012-12-30 02:55:00
9:15 PM,19.2,15.6,86,30.22,10.0,Calm,Calm,-,N/A,,Clear,0,2012-12-30 03:15:00
9:35 PM,18.5,15.4,88,30.22,10.0,Calm,Calm,-,N/A,,Clear,0,2012-12-30 03:35:00
9:55 PM,17.6,14.9,89,30.22,10.0,Calm,Calm,-,N/A,,Clear,0,2012-12-30 03:55:00
10:15 PM,16.2,13.8,90,30.22,10.0,Calm,Calm,-,N/A,,Clear,0,2012-12-30 04:15:00
10:35 PM,16.2,14.0,91,30.22,10.0,Calm,Calm,-,N/A,,Clear,0,2012-12-30 04:35:00
10:55 PM,15.6,13.6,92,30.22,10.0,Calm,Calm,-,N/A,,Clear,0,2012-12-30 04:55:00
11:15 PM,16.5,14.5,92,30.23,10.0,Calm,Calm,-,N/A,,Clear,0,2012-12-30 05:15:00
11:35 PM,12.6,10.2,90,30.24,10.0,Calm,Calm,-,N/A,,Clear,0,2012-12-30 05:35:00